EW9119 Weather Reports


time (UTC)temp
F
wind
direction
speed
knots
gust
knots
rain 1hr
in
rain 24hr
in
rain mn
in
humidity
%
barometer
mb
20260506061535 63 101 0.0 0.0 0.00 0.00 0.00 64 1010.8
20260506044527 65 153 0.0 0.0 0.00 0.00 0.00 61 1011.2
20260506043020 65 67 0.0 0.0 0.00 0.00 0.00 60 1011.1
20260506041520 66 144 0.0 0.0 0.00 0.00 0.00 60 1011.3
20260506040038 66 140 0.0 0.0 0.00 0.00 0.00 60 1011.1
20260506034517 66 102 0.0 0.0 0.00 0.00 0.00 59 1011.0
20260506033016 66 103 0.0 0.0 0.00 0.00 0.00 58 1011.0
20260506031530 66 32 0.0 0.0 0.00 0.00 0.00 59 1011.0
20260506030015 66 14 0.0 0.0 0.00 0.00 0.00 59 1011.2
20260506024519 66 136 0.0 0.0 0.00 0.00 0.00 59 1011.3
20260506023014 66 143 0.0 0.0 0.00 0.00 0.00 58 1011.4
20260506021514 66 144 0.0 0.0 0.00 0.00 0.00 57 1011.4
20260506020017 67 144 0.0 0.0 0.00 0.00 0.00 55 1011.5
20260506014514 67 145 0.0 0.0 0.00 0.00 0.00 54 1011.4
20260506013011 68 146 0.0 0.0 0.00 0.00 0.00 53 1011.2
20260506011512 69 146 0.0 0.0 0.00 0.00 0.00 51 1011.2
20260506010013 70 146 0.0 0.0 0.00 0.00 0.00 49 1011.0
20260506004521 70 146 0.0 0.0 0.00 0.00 0.00 48 1011.0
20260506003013 71 108 0.0 0.0 0.00 0.00 0.00 46 1010.8
20260506001510 72 283 0.0 0.0 0.00 0.00 0.00 45 1010.7
20260506000009 72 263 0.0 0.0 0.00 0.00 0.00 44 1010.7
20260505234509 73 89 0.0 0.0 0.00 0.00 0.00 44 1010.4
20260505233008 74 136 0.0 1.7 0.00 0.00 0.00 43 1010.3
20260505231508 75 88 0.0 0.0 0.00 0.00 0.00 43 1010.3
20260505230009 75 347 0.0 0.9 0.00 0.00 0.00 42 1010.1
20260505224506 76 141 0.0 1.7 0.00 0.00 0.00 41 1010.2
20260505223005 76 117 0.0 0.0 0.00 0.00 0.00 41 1010.2
20260505221507 77 325 0.0 0.9 0.00 0.00 0.00 40 1010.5
20260505220005 77 84 0.0 1.7 0.00 0.00 0.00 41 1010.6
20260505214501 77 98 0.0 0.0 0.00 0.00 0.00 40 1010.6
20260505213001 77 71 0.0 0.0 0.00 0.00 0.00 39 1010.6
20260505211611 77 107 0.0 0.0 0.00 0.00 0.00 40 1010.7
20260505210103 77 50 0.0 0.0 0.00 0.00 0.00 38 1010.8
20260505204602 78 198 0.0 0.0 0.00 0.00 0.00 37 1010.8
20260505203059 78 82 0.0 0.0 0.00 0.00 0.00 38 1010.8
20260505201600 78 150 0.0 0.0 0.00 0.00 0.00 38 1010.9
20260505200055 78 17 0.0 0.0 0.00 0.00 0.00 37 1011.0
20260505194607 78 107 0.0 0.0 0.00 0.00 0.00 38 1011.3
20260505193051 78 346 0.0 0.0 0.00 0.00 0.00 38 1011.5
20260505191550 78 115 0.0 0.0 0.00 0.00 0.00 38 1011.8
20260505190048 79 137 0.0 0.0 0.00 0.00 0.00 38 1011.9
20260505184547 79 324 0.0 0.0 0.00 0.00 0.00 38 1012.2
20260505183047 79 44 0.0 0.0 0.00 0.00 0.00 40 1012.5
20260505181552 78 9 0.0 0.0 0.00 0.00 0.00 39 1012.5
20260505180045 78 160 0.0 0.0 0.00 0.00 0.00 40 1012.5
20260505174553 79 316 0.0 0.0 0.00 0.00 0.00 40 1012.7
20260505173044 79 302 0.0 0.0 0.00 0.00 0.00 42 1012.9
20260505171543 79 105 0.0 0.0 0.00 0.00 0.00 40 1013.0
20260505170041 79 86 0.0 0.0 0.00 0.00 0.00 40 1013.2
20260505164547 78 277 0.0 0.0 0.00 0.00 0.00 43 1013.3
20260505163049 78 46 0.0 0.9 0.00 0.00 0.00 42 1013.4
20260505161538 77 321 0.0 0.0 0.00 0.00 0.00 43 1013.6
20260505153032 76 360 0.0 0.0 0.00 0.00 0.00 52 1014.0
20260505151527 75 90 0.0 0.0 0.00 0.00 0.00 50 1014.0
20260505130112 64 308 0.0 0.0 0.00 0.00 0.00 63 1014.3
20260505124600 62 73 0.0 0.0 0.00 0.00 0.00 62 1014.1
20260505123051 60 298 0.0 0.0 0.00 0.00 0.00 52 1013.9
20260505121552 57 336 0.0 0.0 0.00 0.00 0.00 34 1013.9
20260505120106 55 331 0.0 0.0 0.00 0.00 0.00 26 1013.9
20260505114548 54 280 0.0 0.0 0.00 0.00 0.00 29 1013.7
20260505113051 54 332 0.0 0.0 0.00 0.00 0.00 35 1013.6
20260505111542 53 335 0.0 0.0 0.00 0.00 0.00 41 1013.4
20260505101534 54 324 0.0 0.0 0.00 0.00 0.00 54 1013.3
20260505100034 54 20 0.0 0.0 0.00 0.00 0.00 55 1013.1
20260505094534 54 78 0.0 0.0 0.00 0.00 0.00 58 1013.1
20260505093029 55 78 0.0 0.0 0.00 0.00 0.00 59 1013.1
20260505091528 55 78 0.0 0.0 0.00 0.00 0.00 60 1013.1
20260505090025 55 76 0.0 0.0 0.00 0.00 0.00 62 1013.0
20260505084526 56 76 0.0 0.0 0.00 0.00 0.00 62 1012.8
20260505083022 56 76 0.0 0.0 0.00 0.00 0.00 63 1012.8
20260505081529 56 73 0.0 0.0 0.00 0.00 0.00 64 1012.4
20260505080020 56 73 0.0 0.0 0.00 0.00 0.00 64 1012.5
20260505074516 57 78 0.0 0.0 0.00 0.00 0.00 64 1012.4
20260505073014 57 122 0.0 0.0 0.00 0.00 0.00 63 1012.3
20260505071524 58 119 0.0 0.0 0.00 0.00 0.00 62 1012.2